Regional Weather Roundup
Issued by NWS Goodland, KS

Home | Current Version | Previous Version | Graphics & Text | Print | Product List | Glossary On
Versions: 1 2 3 4 5 6 7 8 9 10 11 12 13 14 15 16 17 18 19 20 21 22 23 24 25 26 27 28 29 30 31 32 33 34 35 36 37 38 39 40 41 42 43 44 45 46 47 48 49 50
000
ASUS43 KGLD 012108
RWRGLD

GOODLAND FORECAST AREA HOURLY WEATHER ROUNDUP
NATIONAL WEATHER SERVICE GOODLAND KS
300 PM MDT MON JUN 01 2015

...OFFICIAL OBSERVATIONS...

CITY           SKY/WX    TMP DP  RH WIND       PRES   REMARKS
GOODLAND KS    SUNNY     83  58  42 S17       30.00F
HILL CITY KS   MOSUNNY   79  63  57 S10G20    30.01F
IMPERIAL NEB   SUNNY     80  62  54 SE16G26   29.98F
MCCOOK NEB     SUNNY     81  61  50 SE15G24   29.98F
AKRON CO       SUNNY     85  52  32 SE15G21   30.00F
BURLINGTON CO  SUNNY     84  57  39 S18G26    30.02F
LIMON CO       SUNNY     79  52  38 SE16G22   30.07F
$$

...UNOFFICIAL OBSERVATIONS...

CITY           SKY/WX    TMP DP  RH WIND       PRES   REMARKS
COLBY KS       SUNNY     84  63  48 SE16      30.01F
GOVE KS          N/A     81  32  17 MISG        N/A
NORTON KS      MOSUNNY   79  57  47 SE16      30.00
SHARON SPRINGS   N/A     83  67  57 MISG        N/A
KIT CARSON CO    N/A     83  53  35 MISG        N/A
$$



USA.gov is the U.S. government's official web portal to all federal, state and local government web resources and services.